GW1129 Weather Reports


Display with metric or nautical units.
time (UTC)temp
F
wind
direction
speed
MPH
gust
MPH
rain 1hr
in
rain 24hr
in
rain mn
in
humidity
%
barometer
mb
20260505113058 60 0 2.0 7.0 0.00 0.00 0.00 66 1012.0
20260505111557 59 178 1.0 7.0 0.00 0.00 0.00 68 1012.1
20260505110113 58 204 0.0 5.0 0.00 0.00 0.00 69 1011.9
20260505101603 56 0 0.0 2.0 0.00 0.00 0.00 73 1011.2
20260505100057 56 0 0.0 0.0 0.00 0.00 0.00 74 1011.3
20260505094649 57 0 0.0 4.0 0.00 0.00 0.00 74 1011.1
20260505093055 57 220 0.0 4.0 0.00 0.00 0.00 74 1011.0
20260505091559 57 95 0.0 3.0 0.00 0.00 0.00 75 1011.0
20260505084605 58 173 0.0 3.0 0.00 0.00 0.00 74 1011.0
20260505083109 58 0 1.0 7.0 0.00 0.00 0.00 73 1010.9
20260505081601 59 127 1.0 6.0 0.00 0.00 0.00 72 1011.1
20260505080105 59 179 0.0 6.0 0.00 0.00 0.00 71 1011.1
20260505074605 59 110 2.0 6.0 0.00 0.00 0.00 71 1011.0
20260505073103 59 172 1.0 6.0 0.00 0.00 0.00 71 1010.8
20260505071557 59 0 1.0 5.0 0.00 0.00 0.00 72 1010.7
20260505070107 59 192 1.0 6.0 0.00 0.00 0.00 74 1010.9
20260505064657 59 91 3.0 7.0 0.00 0.00 0.00 74 1010.9
20260505063104 59 0 0.0 4.0 0.00 0.00 0.00 75 1010.9
20260505061601 59 175 1.0 7.0 0.00 0.00 0.00 75 1011.0
20260505060101 60 86 0.0 4.0 0.00 0.00 0.00 74 1010.8
20260505054556 60 200 1.0 5.0 0.00 0.00 0.00 74 1011.0
20260505053056 60 127 2.0 5.0 0.00 0.00 0.00 74 1011.1
20260505051557 60 0 1.0 7.0 0.00 0.00 0.00 74 1011.1
20260505050104 60 0 2.0 6.0 0.00 0.00 0.00 74 1011.1
20260505041603 60 238 1.0 5.0 0.00 0.00 0.00 72 1010.9
20260505040106 59 224 2.0 6.0 0.00 0.00 0.00 70 1011.0
20260505034610 60 0 0.0 2.0 0.00 0.00 0.00 66 1010.8
20260505033057 62 211 1.0 8.0 0.00 0.00 0.00 63 1010.8
20260505031558 63 167 3.0 10.0 0.00 0.00 0.00 61 1010.9
20260505030114 63 169 3.0 11.0 0.00 0.00 0.00 59 1010.9
20260505024609 63 181 4.0 9.0 0.00 0.00 0.00 57 1010.8
20260505023058 63 129 2.0 16.0 0.00 0.00 0.00 56 1010.9
20260505021557 63 141 2.0 7.0 0.00 0.00 0.00 56 1011.0
20260505020107 64 218 2.0 9.0 0.00 0.00 0.00 55 1010.8
20260505014558 64 198 3.0 11.0 0.00 0.00 0.00 55 1010.7
20260505013057 64 106 2.0 12.0 0.00 0.00 0.00 55 1010.5
20260505011559 64 94 2.0 8.0 0.00 0.00 0.00 55 1010.4
20260505010109 64 196 2.0 11.0 0.00 0.00 0.00 53 1010.3
20260505004624 64 160 2.0 7.0 0.00 0.00 0.00 53 1010.4
20260505003100 64 0 3.0 9.0 0.00 0.00 0.00 52 1010.2
20260505001557 65 74 4.0 8.0 0.00 0.00 0.00 50 1010.2
20260505000112 65 191 3.0 12.0 0.00 0.00 0.00 48 1010.3
20260504234556 66 207 4.0 16.0 0.00 0.00 0.00 47 1010.3
20260504233103 67 179 4.0 19.0 0.00 0.00 0.00 46 1010.5
20260504231622 68 162 4.0 14.0 0.00 0.00 0.00 44 1010.4
20260504230058 68 157 4.0 12.0 0.00 0.00 0.00 42 1010.4
20260504224606 69 101 4.0 12.0 0.00 0.00 0.00 40 1010.3
20260504223057 69 92 3.0 13.0 0.00 0.00 0.00 40 1010.2
20260504221641 69 231 6.0 12.0 0.00 0.00 0.00 40 1010.3
20260504220059 70 163 4.0 10.0 0.00 0.00 0.00 39 1010.2
20260504214555 70 184 4.0 12.0 0.00 0.00 0.00 38 1010.4
20260504213102 70 264 6.0 14.0 0.00 0.00 0.00 38 1010.4
20260504211556 70 130 6.0 15.0 0.00 0.00 0.00 38 1010.5
20260504210056 70 139 4.0 12.0 0.00 0.00 0.00 38 1010.6
20260504204557 70 184 7.0 17.0 0.00 0.00 0.00 37 1010.8
20260504203056 70 234 5.0 13.0 0.00 0.00 0.00 37 1010.8
20260504201557 71 125 4.0 12.0 0.00 0.00 0.00 37 1010.9
20260504194606 69 98 5.0 15.0 0.00 0.00 0.00 37 1011.4
20260504193102 70 97 6.0 12.0 0.00 0.00 0.00 36 1011.7
20260504191623 69 255 6.0 14.0 0.00 0.00 0.00 38 1011.8
20260504184606 69 143 5.0 14.0 0.00 0.00 0.00 35 1012.1
20260504183055 69 165 3.0 13.0 0.00 0.00 0.00 38 1012.2
20260504181604 69 92 4.0 14.0 0.00 0.00 0.00 38 1012.2
20260504174559 69 217 3.0 9.0 0.00 0.00 0.00 36 1012.8
20260504173104 68 94 3.0 12.0 0.00 0.00 0.00 38 1012.9
20260504171605 68 211 3.0 12.0 0.00 0.00 0.00 40 1013.0
20260504140106 60 188 2.0 8.0 0.00 0.00 0.00 50 1014.4